Regional Weather Roundup
Issued by NWS State College, PA

Home | Current Version | Previous Version | Graphics & Text | Print | Product List | Glossary On
Versions: 1 2 3 4 5 6 7 8 9 10 11 12 13 14 15 16 17 18 19 20 21 22 23 24 25 26 27 28 29 30 31 32 33 34 35 36 37 38 39 40 41 42 43 44 45 46 47 48 49 50
000
ASUS41 KCTP 241703
RWRCTP

REGIONAL WEATHER ROUNDUP
NATIONAL WEATHER SERVICE STATE COLLEGE PA
100 PM EDT SAT SEP 24 2016

Note: "fair" indicates few or no clouds below 12,000 feet with no
significant weather and/or obstructions to visibility.

* = STATION THAT DOES NOT REPORT PRECIPITATION /E.G. RAIN...SNOW...ETC/
    THUNDER OR FOG.

PAZ002>004-007>009-013>016-020>023-029>032-241800-
WESTERN PENNSYLVANIA

CITY           SKY/WX    TMP DP  RH WIND       PRES   REMARKS
ERIE           MOSUNNY   65  50  58 NE15G24   30.24S
MEADVILLE      SUNNY     64  46  52 N9        30.23S
FRANKLIN*        N/A     64  48  55 N3        30.22F
NEW CASTLE     FAIR      66  54  65 NE8       30.22S
BEAVER COUNTY  CLOUDY    68  57  68 N6        30.21R
BUTLER*        CLOUDY    64  55  72 E7        30.23S
PITTSBURGH INT CLOUDY    68  60  75 NE9       30.19R
PITTSBURGH     CLOUDY    66  57  72 N7        30.18R
INDIANA*       CLOUDY    63  55  77 E7        30.22S
LATROBE        CLOUDY    64  59  82 N8        30.20R
WASHINGTON CO* CLOUDY    70  61  73 N7        30.19S
$$

PAZ004>006-010>012-017>019-024>028-033>037-041-042-045-046-049>053-241800-
CENTRAL PENNSYLVANIA

CITY           SKY/WX    TMP DP  RH WIND       PRES   REMARKS
BRADFORD       SUNNY     62  46  55 VRB6      30.22S
DUBOIS         SUNNY     66  45  46 NE6       30.19F
CLEARFIELD     SUNNY     68  47  46 E8        30.19F
JOHNSTOWN      CLOUDY    62  55  77 N8        30.19S
ALTOONA        CLOUDY    62  51  67 VRB7      30.20R
STATE COLLEGE  SUNNY     66  46  48 NE8       30.18S
WILLIAMSPORT   SUNNY     70  44  39 VRB6      30.16F
SELINSGROVE    SUNNY     71  42  35 NW6G21    30.17S
FT INDIANTOWN  PTSUNNY   69  53  57 NE8       30.14F
CAPITAL CITY   CLOUDY    71  49  45 NW9       30.15S
HARRISBURG     PTSUNNY   69  55  60 VRB6      30.13F
YORK           CLOUDY    66  57  72 NE9       30.15S
$$

PAZ038>040-043-044-047-048-054-055-060>062-067>071-241800-
EASTERN PENNSYLVANIA

CITY           SKY/WX    TMP DP  RH WIND       PRES   REMARKS
SCRANTON       SUNNY     66  46  48 N13       30.16S
MOUNT POCONO   SUNNY     61  42  49 N7        30.15F
ALLENTOWN      CLOUDY    68  52  56 E6        30.13F
QUAKERTOWN*    CLOUDY    66  52  59 N6        30.15R
READING        CLOUDY    64  53  67 N10       30.14S
LANCASTER      CLOUDY    66  58  75 NE3       30.14S
COATESVILLE    CLOUDY    64  55  72 N7        30.15S
POTTSTOWN      CLOUDY    66  53  63 VRB6      30.15S
BLUE BELL      CLOUDY    63  54  72 CALM      30.13S
DOYLESTOWN     CLOUDY    68  55  63 N6        30.13S
WILLOW GROVE   NOT AVBL
NORTH PHILA    CLOUDY    67  55  65 NE8       30.15R
PHILADELPHIA   CLOUDY    66  56  70 NE10      30.13S
$$




USA.gov is the U.S. government's official web portal to all federal, state and local government web resources and services.